Location: Sternwarte auf dem Internationalen Platz Vogelsang IP
(50.5721°N, 6.4398°E)
Time: 22:21:34
(UTC+01:00)

Explorer 7 - All Passes

Search period start: 05 December 2025 00:00
Search period end: 15 December 2025 00:00
Orbit: 436 x 554 km, 50.3° (Epoch: 05 December)

Date Brightness Start Highest point End Pass type
(mag) Time Alt. Az. Time Alt. Az. Time Alt. Az.
05 Dec - 00:46:52 10° W 00:50:22 80° S 00:53:57 10° ESE night (unlit)
05 Dec - 02:25:30 10° W 02:28:43 33° SSW 02:32:01 10° SE night (unlit)
05 Dec - 21:07:20 10° SSW 21:10:20 28° SSE 21:13:22 10° E night (unlit)
05 Dec - 22:45:08 10° WSW 22:48:36 75° SSE 22:52:06 10° E night (unlit)
06 Dec - 00:23:39 10° W 00:27:08 80° S 00:30:42 10° ESE night (unlit)
06 Dec - 02:02:16 10° W 02:05:29 33° SSW 02:08:46 10° SE night (unlit)
06 Dec - 20:44:04 10° SSW 20:47:04 28° SSE 20:50:05 10° E night (unlit)
06 Dec - 22:21:52 10° WSW 22:25:20 75° SSE 22:28:49 10° E night (unlit)
07 Dec - 00:00:24 10° W 00:03:52 80° S 00:07:25 10° ESE night (unlit)
07 Dec - 01:39:01 10° W 01:42:12 33° SSW 01:45:28 10° SE night (unlit)
07 Dec - 20:20:46 10° SSW 20:23:46 28° SSE 20:26:47 10° E night (unlit)
07 Dec - 21:58:34 10° WSW 22:02:02 75° S 22:05:31 10° E night (unlit)
07 Dec - 23:37:05 10° W 23:40:34 80° S 23:44:06 10° ESE night (unlit)
08 Dec - 01:15:43 10° W 01:18:54 32° SSW 01:22:08 10° SE night (unlit)
08 Dec - 19:57:25 10° SSW 20:00:26 28° SSE 20:03:27 10° E visible
08 Dec - 21:35:14 10° WSW 21:38:42 75° SSE 21:42:10 10° E night (unlit)
08 Dec - 23:13:45 10° W 23:17:14 80° S 23:20:45 10° ESE night (unlit)
09 Dec - 00:52:23 10° W 00:55:33 32° SSW 00:58:46 10° SE night (unlit)
09 Dec - 19:34:02 10° SSW 19:37:04 28° SSE 19:40:05 10° E visible
09 Dec - 21:11:51 10° WSW 21:15:20 75° SSE 21:18:48 10° E night (unlit)
09 Dec - 22:50:23 10° W 22:53:51 80° S 22:57:22 10° ESE night (unlit)
10 Dec - 00:29:01 10° W 00:32:10 32° SSW 00:35:23 10° SE night (unlit)
10 Dec - 19:10:38 10° SSW 19:13:40 28° SSE 19:16:41 10° E visible
10 Dec - 20:48:26 10° WSW 20:51:55 75° SSE 20:55:23 10° E visible
10 Dec - 22:26:58 10° W 22:30:26 80° S 22:33:56 10° ESE night (unlit)
11 Dec - 00:05:37 10° W 00:08:45 32° SSW 00:11:57 10° SE night (unlit)
11 Dec - 18:47:10 10° SSW 18:50:13 28° SSE 18:53:15 10° E visible
11 Dec - 20:25:00 10° WSW 20:28:28 75° S 20:31:57 10° E visible
11 Dec - 22:03:31 10° W 22:07:00 80° S 22:10:29 10° ESE night (unlit)
11 Dec - 23:42:09 10° W 23:45:18 32° SSW 23:48:29 10° SE night (unlit)
12 Dec - 18:23:41 10° SSW 18:26:44 28° SSE 18:29:46 10° E visible
12 Dec - 20:01:30 10° WSW 20:05:00 75° SSE 20:08:28 10° E visible
12 Dec - 21:40:02 10° W 21:43:31 80° S 21:47:00 10° ESE night (unlit)
12 Dec - 23:18:40 10° W 23:21:49 32° SSW 23:24:59 10° SE night (unlit)
13 Dec - 18:00:09 10° SSW 18:03:14 28° SSE 18:06:16 10° E visible
13 Dec - 19:37:58 10° WSW 19:41:28 75° SSE 19:44:56 10° E visible
13 Dec - 21:16:31 10° W 21:20:00 80° S 21:23:28 10° ESE night (unlit)
13 Dec - 22:55:09 10° W 22:58:17 32° SSW 23:01:28 10° SE night (unlit)
14 Dec - 17:36:35 10° SSW 17:39:40 28° SSE 17:42:43 10° E visible
14 Dec - 19:14:24 10° WSW 19:17:56 75° SSE 19:21:24 10° E visible
14 Dec - 20:52:56 10° W 20:56:26 80° S 20:59:54 10° ESE visible
14 Dec - 22:31:36 10° W 22:34:44 33° SSW 22:37:54 10° SE night (unlit)
